Location: Unspecified
(0.0000°N, 0.0000°E)
Time: 23:47:10
(UTC+02:00)

Cosmos 2369 Rocket - Visible Passes

Search period start: 02 September 2015 00:00
Search period end: 12 September 2015 00:00
Orbit: 827 x 854 km, 71.0° (Epoch: 01 September)

Date Brightness Start Highest point End Pass type
(mag) Time Alt. Az. Time Alt. Az. Time Alt. Az.
02 Sep 5.1 20:47:03 10° WSW 20:51:14 20° WNW 20:55:11 10° NNW visible
03 Sep 5.0 20:31:33 10° SW 20:35:55 22° WNW 20:40:05 10° NNW visible
04 Sep 2.2 07:30:42 10° NNW 07:36:21 88° W 07:41:59 10° SSE visible
04 Sep 5.0 20:16:05 10° SW 20:20:37 24° WNW 20:24:58 10° NNW visible
05 Sep 2.3 07:15:25 10° NNW 07:21:03 86° ENE 07:26:42 10° SSE visible
06 Sep 2.3 07:00:08 10° NNW 07:05:46 80° ENE 07:11:23 10° SSE visible
07 Sep 2.4 06:44:51 10° N 06:50:28 74° ENE 06:56:05 10° SSE visible
08 Sep 2.5 06:29:35 10° N 06:35:10 68° ENE 06:40:46 10° SSE visible
09 Sep 2.6 06:14:19 10° N 06:19:53 63° ENE 06:25:26 10° SSE visible
10 Sep 2.7 05:59:05 10° N 06:04:35 58° ENE 06:10:06 10° SSE visible
11 Sep 2.8 05:48:03 44° NNE 05:49:18 53° ENE 05:54:46 10° SSE visible
